UR7D-12 Weather Reports


time (UTC)temp
C
wind
direction
speed
KPH
gust
KPH
rain 1hr
cm
rain 24hr
cm
rain mn
cm
humidity
%
barometer
mb
20260504205034 15 103 4.8 6.4 0.00 0.00 0.00 48 990.3
20260504204035 16 90 4.8 6.4 0.00 0.00 0.00 47 990.2
20260504203533 16 86 4.8 6.4 0.00 0.00 0.00 47 990.2
20260504203033 16 90 4.8 4.8 0.00 0.00 0.00 45 990.1
20260504202538 17 103 4.8 6.4 0.00 0.00 0.00 45 990.1
20260504202035 17 113 4.8 6.4 0.00 0.00 0.00 44 990.1
20260504201533 17 107 4.8 6.4 0.00 0.00 0.00 43 990.1
20260504201033 17 114 4.8 4.8 0.00 0.00 0.00 42 990.1
20260504200532 17 115 3.2 4.8 0.00 0.00 0.00 43 990.1
20260504200032 17 117 3.2 4.8 0.00 0.00 0.00 42 990.1
20260504195531 17 125 1.6 3.2 0.00 0.00 0.00 42 990.1
20260504195031 17 125 1.6 1.6 0.00 0.00 0.00 42 990.1
20260504194532 17 113 0.0 1.6 0.00 0.00 0.00 41 990.2
20260504193530 18 106 0.0 1.6 0.00 0.00 0.00 40 990.1
20260504193031 18 106 0.0 1.6 0.00 0.00 0.00 39 990.1
20260504192529 18 73 0.0 1.6 0.00 0.00 0.00 39 990.3
20260504191529 18 73 0.0 1.6 0.00 0.00 0.00 38 990.2
20260504191030 19 73 0.0 0.0 0.00 0.00 0.00 37 990.2
20260504190531 19 73 1.6 0.0 0.00 0.00 0.00 37 990.3
20260504190030 18 73 3.2 4.8 0.00 0.00 0.00 39 990.4
20260504184527 18 145 1.6 1.6 0.00 0.00 0.00 41 990.1
20260504183030 18 145 1.6 1.6 0.00 0.00 0.00 44 990.1
20260504182029 18 211 0.0 0.0 0.00 0.00 0.00 44 990.0
20260504181528 18 299 0.0 0.0 0.00 0.00 0.00 41 990.0
20260504180026 20 299 0.0 0.0 0.00 0.00 0.00 38 990.0
20260504174527 21 299 0.0 1.6 0.00 0.00 0.00 35 989.8
20260504174025 21 299 1.6 1.6 0.00 0.00 0.00 35 989.7
20260504173526 22 299 1.6 1.6 0.00 0.00 0.00 33 989.7
20260504170524 22 299 1.6 1.6 0.00 0.00 0.00 34 989.6
20260504151016 23 294 6.4 16.1 0.00 0.00 0.00 30 990.0
20260504150516 23 303 8.0 11.3 0.00 0.00 0.00 30 990.0
20260504140401 23 326 6.4 11.3 0.00 0.00 0.00 32 990.7
20260504110353 21 331 11.3 22.5 0.00 0.00 0.00 37 992.4
20260504081841 18 314 3.2 8.0 0.00 0.00 0.00 47 993.8
20260504081344 18 232 3.2 9.7 0.00 0.00 0.00 49 993.9
20260504080841 17 64 3.2 4.8 0.00 0.00 0.00 53 993.9
20260504080341 17 114 4.8 9.7 0.00 0.00 0.00 51 993.8
20260504070338 14 80 11.3 14.5 0.00 0.00 0.00 61 993.8
20260504050329 10 108 12.9 19.3 0.00 0.00 0.00 74 993.7
20260504045829 9 85 12.9 19.3 0.00 0.00 0.00 74 993.7
20260504045330 9 103 12.9 20.9 0.00 0.00 0.00 74 993.6
20260504044829 9 94 11.3 19.3 0.00 0.00 0.00 74 993.4
20260504044328 9 96 11.3 14.5 0.00 0.00 0.00 74 993.4
20260504042829 9 115 9.7 17.7 0.00 0.00 0.00 74 993.4
20260504042327 9 117 8.0 16.1 0.00 0.00 0.00 75 993.4
20260504041828 9 73 8.0 14.5 0.00 0.00 0.00 75 993.3
20260504041328 8 74 8.0 11.3 0.00 0.00 0.00 75 993.2
20260504040826 8 125 8.0 9.7 0.00 0.00 0.00 75 993.2
20260504035826 8 153 8.0 14.5 0.00 0.00 0.00 75 993.3
20260504035325 8 105 6.4 14.5 0.00 0.00 0.00 76 993.3
20260504034826 8 124 6.4 9.7 0.00 0.00 0.00 76 993.1
20260504034326 8 114 9.7 14.5 0.00 0.00 0.00 76 993.2
20260504033826 8 117 9.7 16.1 0.00 0.00 0.00 77 993.1
20260504033324 8 122 11.3 17.7 0.00 0.00 0.00 77 992.9
20260504032825 8 105 11.3 16.1 0.00 0.00 0.00 77 992.8
20260504032325 8 91 12.9 17.7 0.00 0.00 0.00 78 993.0
20260504031823 8 86 11.3 19.3 0.00 0.00 0.00 78 992.9
20260504031324 8 113 12.9 17.7 0.00 0.00 0.00 78 993.0
20260504030823 8 98 12.9 19.3 0.00 0.00 0.00 78 993.0
20260504030324 8 101 11.3 17.7 0.00 0.00 0.00 78 993.0
20260504025824 8 94 11.3 17.7 0.00 0.00 0.00 77 992.9
20260504024823 8 101 11.3 19.3 0.00 0.00 0.00 77 992.9
20260504023821 8 131 9.7 14.5 0.00 0.00 0.00 77 992.9
20260504022821 8 100 6.4 12.9 0.00 0.00 0.00 77 993.1
20260504021821 8 102 3.2 6.4 0.00 0.00 0.00 76 993.0
20260504021321 8 96 1.6 4.8 0.00 0.00 0.00 76 993.1
20260504020821 8 114 3.2 4.8 0.00 0.00 0.00 76 993.0
20260504020319 8 116 3.2 11.3 0.00 0.00 0.00 75 993.1
20260504015819 8 116 1.6 3.2 0.00 0.00 0.00 75 993.0
20260504015319 8 117 0.0 1.6 0.00 0.00 0.00 75 993.1
20260504014818 8 123 1.6 1.6 0.00 0.00 0.00 75 993.1
20260504014318 8 122 1.6 4.8 0.00 0.00 0.00 75 993.1
20260504013821 8 91 3.2 6.4 0.00 0.00 0.00 75 993.1
20260504013318 9 132 3.2 4.8 0.00 0.00 0.00 74 993.1
20260504012317 9 115 3.2 6.4 0.00 0.00 0.00 73 993.1
20260504011818 9 146 3.2 6.4 0.00 0.00 0.00 73 993.0
20260504011317 9 108 3.2 4.8 0.00 0.00 0.00 73 993.0
20260504010817 9 108 4.8 6.4 0.00 0.00 0.00 73 993.1
20260504010316 9 108 6.4 9.7 0.00 0.00 0.00 73 993.1
20260504005817 9 89 8.0 12.9 0.00 0.00 0.00 73 993.2
20260504005317 9 100 6.4 9.7 0.00 0.00 0.00 73 993.0
20260504004816 9 117 6.4 9.7 0.00 0.00 0.00 73 993.0
20260504004315 9 107 6.4 8.0 0.00 0.00 0.00 73 993.2
20260504003815 9 100 6.4 11.3 0.00 0.00 0.00 73 993.1
20260504003314 10 100 6.4 9.7 0.00 0.00 0.00 72 993.1
20260504002815 10 98 6.4 9.7 0.00 0.00 0.00 72 993.1
20260504002316 10 96 6.4 9.7 0.00 0.00 0.00 72 993.1
20260504001817 10 103 6.4 9.7 0.00 0.00 0.00 72 993.1
20260504001313 10 105 3.2 8.0 0.00 0.00 0.00 72 993.2
20260504000814 10 117 3.2 6.4 0.00 0.00 0.00 72 993.2
20260504000313 10 111 4.8 6.4 0.00 0.00 0.00 72 993.2
20260503235312 10 98 3.2 4.8 0.00 0.00 0.00 71 993.2
20260503234812 10 99 4.8 6.4 0.00 0.00 0.00 71 993.3
20260503234313 10 90 4.8 6.4 0.00 0.00 0.00 71 993.3
20260503233812 10 90 3.2 6.4 0.00 0.00 0.00 70 993.2
20260503233311 10 106 4.8 6.4 0.00 0.00 0.00 70 993.3
20260503232811 10 102 4.8 6.4 0.00 0.00 0.00 69 993.2
20260503232310 10 89 3.2 6.4 0.00 0.00 0.00 69 993.1
20260503231813 10 96 3.2 4.8 0.00 0.00 0.00 69 993.1
20260503231310 10 97 1.6 3.2 0.00 0.00 0.00 68 993.0
20260503230810 10 97 3.2 3.2 0.00 0.00 0.00 68 992.9
20260503230309 11 93 3.2 4.8 0.00 0.00 0.00 68 992.9
20260503225810 11 98 3.2 4.8 0.00 0.00 0.00 68 992.9
20260503225308 11 108 4.8 6.4 0.00 0.00 0.00 67 992.9
20260503224809 11 92 4.8 9.7 0.00 0.00 0.00 67 992.9
20260503224308 11 110 4.8 8.0 0.00 0.00 0.00 67 992.9
20260503223809 11 123 4.8 6.4 0.00 0.00 0.00 67 992.9
20260503222807 11 141 3.2 4.8 0.00 0.00 0.00 66 992.8
20260503221806 11 104 4.8 6.4 0.00 0.00 0.00 67 992.7
20260503220806 11 97 4.8 4.8 0.00 0.00 0.00 66 992.6
20260503220306 11 99 4.8 4.8 0.00 0.00 0.00 65 992.7
20260503215805 11 98 4.8 6.4 0.00 0.00 0.00 64 992.6
20260503215305 12 109 4.8 8.0 0.00 0.00 0.00 64 992.7
20260503214808 12 108 4.8 9.7 0.00 0.00 0.00 63 992.6
20260503214305 12 113 6.4 8.0 0.00 0.00 0.00 62 992.6
20260503213804 12 107 6.4 8.0 0.00 0.00 0.00 61 992.7
20260503213305 12 123 4.8 8.0 0.00 0.00 0.00 60 992.7
20260503212805 12 119 4.8 6.4 0.00 0.00 0.00 60 992.6
20260503212305 12 104 3.2 4.8 0.00 0.00 0.00 59 992.6
20260503211805 13 113 1.6 4.8 0.00 0.00 0.00 58 992.6
20260503210804 13 119 1.6 1.6 0.00 0.00 0.00 56 992.6
20260503210303 13 119 1.6 3.2 0.00 0.00 0.00 56 992.7
20260503205802 13 119 1.6 3.2 0.00 0.00 0.00 55 992.6